[[{"header":{"parameterUnit":"m.s-1","parameterCategory":1,"la1":30.2991,"la2":30.254,"lo1":-89.0895,"lo2":-89.0444,"dy":0.0017,"dx":0.0017,"nx":28,"ny":28,"refTime":"2025-01-26T09:00:00:Z","depth":0,"parameterNumber":2,"parameterNumberName":"U-component_of_WINDS"},"data":[0,0,0,0,0,0,0,0,0,0,0,0,0,0,0,0,0,0,0,0,0,0,0,0,0,0,0,0,0,0,0,0,0,0,0,0,0,0,0,0,0,0,0,0,0,0,0,0,0,0,0,0,0,0,0,0,0,0,2.2501,2.2502,0,2.2596,2.2597,2.2598,2.2585,2.2584,2.2582,2.2581,2.2683,2.2687,2.2691,0,0,0,0,0,0,0,0,0,0,0,0,0,2.2317,2.232,2.2501,2.2502,2.2503,2.2595,2.2597,2.2598,2.2586,2.2584,2.2582,2.258,2.2682,2.2687,2.2692,0,0,0,0,0,0,0,0,0,0,0,0,0,2.2403,2.2321,2.2501,2.2508,2.251,2.2595,2.2597,2.2598,2.2586,2.2584,2.2581,2.2579,2.268,2.2686,2.2692,2.2778,0,0,2.2711,2.2714,0,0,0,0,0,0,0,0,2.2398,2.241,2.2506,2.2508,2.251,2.2576,2.2569,2.2659,2.2587,2.2557,2.2581,2.2578,2.265,2.2658,2.2681,2.2783,2.2787,2.2712,2.2716,2.2719,2.272,0,0,0,0,0,0,0,2.2392,2.2405,2.2539,2.2507,2.251,2.2509,2.2519,2.2586,2.2616,2.256,2.2559,2.257,2.265,2.2675,2.2684,2.2789,2.2712,2.2717,2.2721,2.2724,2.2969,2.2972,0,0,0,0,0,0,2.2383,2.24,2.2536,2.2541,2.2447,2.2514,2.2525,2.2557,2.2615,2.2621,2.2572,2.2569,2.2666,2.2676,2.2687,2.2794,2.2718,2.2724,2.2728,2.2966,2.297,2.2973,0,0,0,0,0,0,2.2379,2.2395,2.2532,2.2471,2.2488,2.252,2.2556,2.256,2.2585,2.2624,2.263,2.2592,2.2664,2.2678,2.2756,2.2797,2.2727,2.2733,2.2963,2.2967,2.2971,2.3006,0,0,0,0,0,0,2.2374,2.2394,2.2425,2.2471,2.2491,2.2597,2.2559,2.2564,2.2596,2.2593,2.2644,2.265,2.2664,2.2747,2.2762,2.2805,2.2738,2.296,2.2965,2.297,2.3002,2.3011,2.3019,0,0,0,0,0,2.2367,2.2432,2.2427,2.2443,2.2531,2.2599,2.2611,2.2623,2.2599,2.2632,2.2657,2.2649,2.279,2.2755,2.2772,2.2817,2.2957,2.2964,2.297,2.2998,2.3009,2.3019,0,0,0,0,0,0,2.239,2.2438,2.2433,2.2513,2.2552,2.2597,2.2638,2.2634,2.2682,2.2678,2.2693,2.2705,2.2784,2.2808,2.2768,2.2905,2.2871,2.2881,2.2886,2.2897,2.2906,2.2899,2.2743,0,0,0,0,0,2.2404,2.2454,2.2494,2.2561,2.2581,2.2606,2.2637,2.2643,2.2684,2.2701,2.2732,2.2775,2.2829,2.2864,2.2916,2.3005,2.3018,2.3045,2.3053,2.306,2.3069,2.3122,2.3135,2.2993,2.2993,2.2993,0,0,2.2435,2.2467,2.2498,2.2567,2.2597,2.2651,2.262,2.2678,2.2719,2.2711,2.2786,2.281,2.2859,2.2943,2.2982,2.2966,2.3111,2.3068,2.3074,2.3079,2.3129,2.3143,2.3155,2.2997,2.2997,2.2996,0,0,2.2518,2.2546,2.2606,2.2638,2.2685,2.2702,2.2716,2.2762,2.2778,2.2853,2.2849,2.2899,2.2991,2.3027,2.3057,2.3156,2.3152,2.3173,2.3219,2.327,2.3281,2.3291,2.333,2.3343,2.3181,2.3181,2.3181,0,2.255,2.2629,2.2639,2.2697,2.2729,2.2723,2.2787,2.2817,2.2879,2.2903,2.2883,2.3001,2.3033,2.3127,2.3151,2.3175,2.3195,2.3168,2.3278,2.3289,2.3298,2.3335,2.3349,2.3184,2.3184,2.3183,2.3183,0,2.2668,2.2723,2.2767,2.2826,2.2863,2.2923,2.2945,2.2981,2.2985,2.3005,2.3084,2.3122,2.3183,2.3205,2.3209,2.3301,2.329,2.3274,2.3241,2.3314,2.3349,2.3363,2.3187,2.3186,2.3186,2.3185,0,0,2.2768,2.2832,2.2849,2.2877,2.2929,2.2973,2.3034,2.3092,2.3125,2.3168,2.3223,2.3302,2.3288,2.3323,2.3331,2.3375,2.3455,2.3355,2.3356,2.3374,2.3562,2.3575,2.3591,2.3452,2.3454,2.3457,2.3559,0,2.2858,2.2965,2.2977,2.3074,2.3127,2.3123,2.3177,2.3217,2.3237,2.3287,2.3311,2.3368,2.3344,2.3365,2.3408,2.3436,2.3494,2.3429,2.3506,2.3508,2.3495,2.3609,2.3622,2.3717,2.3573,2.3575,2.3577,0,2.2977,2.3024,2.3126,2.3173,2.3195,2.3243,2.3299,2.3346,2.3392,2.3404,2.3443,2.3446,2.3514,2.3476,2.357,2.3526,2.3559,2.3577,2.3581,2.3591,2.3548,2.3624,2.3747,2.3763,2.3598,2.3596,2.3594,0,2.3044,2.3131,2.3204,2.3228,2.3284,2.3319,2.3344,2.3387,2.3422,2.3472,2.3495,2.3552,2.3584,2.363,2.3649,2.362,2.3744,2.3707,2.3759,2.3759,2.3786,2.3785,2.3919,2.3804,2.3803,2.3803,2.3803,0,2.3144,2.3207,2.3235,2.328,2.3352,2.3366,2.3438,2.3462,2.3501,2.3553,2.3553,2.3602,2.3624,2.3678,2.3694,2.3772,2.3785,2.38,2.3804,2.3801,2.3799,2.3823,2.3818,2.3807,2.3806,2.3805,2.3805,0,2.3231,2.3251,2.3331,2.3377,2.3391,2.3442,2.3483,2.3529,2.3549,2.3615,2.3631,2.3664,2.3728,2.3752,2.3829,2.384,2.3931,2.3928,2.3915,2.3916,2.3968,2.3963,2.4124,2.4147,2.4014,2.4015,2.4016,0,2.3294,2.3343,2.3395,2.3429,2.3455,2.351,2.3546,2.3562,2.36,2.3657,2.3696,2.3759,2.381,2.3912,2.3945,2.4005,2.4005,2.4058,2.4015,2.4011,2.4009,2.4007,2.4014,2.4066,2.4068,2.4069,2.407,0,2.3406,2.3415,2.3465,2.352,2.3563,2.3607,2.365,2.3679,2.3702,2.3746,2.3809,2.3849,2.3928,2.3992,2.4054,2.4083,2.4082,2.4083,2.4098,2.4097,2.4088,2.4097,2.3939,2.4079,2.4078,2.4078,2.4077,2.4077,2.3485,2.3529,2.3573,2.363,2.3665,2.3706,2.3751,2.3777,2.383,2.3895,2.3902,2.3972,2.402,2.4102,2.4134,2.4191,2.4177,2.4199,2.4205,2.4211,2.4216,2.4077,2.4202,2.4202,2.4202,2.4201,2.4201,0,2.36,2.3628,2.368,2.3741,2.3787,2.3779,2.3827,2.3867,2.3928,2.3971,2.4021,2.4097,2.4159,2.4197,2.426,2.4298,2.43,2.4315,2.4313,2.4321,2.4223,2.4204,2.4313,2.4313,2.4313,2.4313,2.4313,2.4313,2.3665,2.374,2.3753,2.3847,2.3875,2.3942,2.3971,2.401,2.4045,2.4128,2.4179,2.4203,2.4245,2.4312,2.437,2.4379,2.4404,2.4421,2.443,2.4338,2.4327,2.4316,2.4299,2.4425,2.4425,2.4523,2.4524,2.4524]},{"header":{"parameterUnit":"m.s-1","parameterCategory":1,"la1":30.2991,"la2":30.254,"lo1":-89.0895,"lo2":-89.0444,"dy":0.0017,"dx":0.0017,"nx":28,"ny":28,"refTime":"2025-01-26T09:00:00:Z","depth":0,"parameterNumber":3,"parameterNumberName":"V-component_of_WINDS"},"data":[0,0,0,0,0,0,0,0,0,0,0,0,0,0,0,0,0,0,0,0,0,0,0,0,0,0,0,0,0,0,0,0,0,0,0,0,0,0,0,0,0,0,0,0,0,0,0,0,0,0,0,0,0,0,0,0,0,0,-0.9005,-0.9003,0,-0.8862,-0.886,-0.8858,-0.8861,-0.8863,-0.8865,-0.8867,-0.8712,-0.8706,-0.87,0,0,0,0,0,0,0,0,0,0,0,0,0,-0.9275,-0.927,-0.9005,-0.9003,-0.9002,-0.8862,-0.886,-0.8858,-0.8861,-0.8863,-0.8865,-0.8868,-0.8714,-0.8707,-0.8699,0,0,0,0,0,0,0,0,0,0,0,0,0,-0.9147,-0.9269,-0.9005,-0.8986,-0.8983,-0.8862,-0.886,-0.8857,-0.886,-0.8863,-0.8866,-0.8869,-0.8716,-0.8707,-0.8698,-0.8585,0,0,-0.8671,-0.8667,0,0,0,0,0,0,0,0,-0.9154,-0.9137,-0.8991,-0.8987,-0.8984,-0.8883,-0.8898,-0.8766,-0.8859,-0.8907,-0.8867,-0.887,-0.8766,-0.8753,-0.8719,-0.8578,-0.8571,-0.867,-0.8665,-0.8661,-0.8659,0,0,0,0,0,0,0,-0.9163,-0.9143,-0.8948,-0.8989,-0.8984,-0.8983,-0.8968,-0.8873,-0.8821,-0.8903,-0.8903,-0.8886,-0.8764,-0.8728,-0.8716,-0.8569,-0.8671,-0.8663,-0.8657,-0.8654,-0.8328,-0.8325,0,0,0,0,0,0,-0.9177,-0.9151,-0.8953,-0.8944,-0.9078,-0.8976,-0.8959,-0.8912,-0.8822,-0.8812,-0.8884,-0.8887,-0.8742,-0.8726,-0.871,-0.8572,-0.8661,-0.8653,-0.8648,-0.8332,-0.8328,-0.8324,0,0,0,0,0,0,-0.9183,-0.916,-0.8958,-0.9047,-0.9022,-0.8968,-0.8915,-0.8907,-0.8871,-0.8808,-0.8798,-0.8857,-0.8743,-0.8723,-0.8617,-0.8567,-0.8649,-0.8641,-0.8335,-0.833,-0.8326,-0.8295,0,0,0,0,0,0,-0.9191,-0.9162,-0.9119,-0.9046,-0.9017,-0.8869,-0.8912,-0.8903,-0.8857,-0.8859,-0.878,-0.8769,-0.8744,-0.863,-0.8608,-0.8556,-0.8634,-0.834,-0.8333,-0.8327,-0.83,-0.829,-0.8281,0,0,0,0,0,-0.92,-0.9114,-0.9117,-0.9093,-0.8963,-0.8867,-0.8849,-0.8824,-0.8853,-0.8809,-0.8769,-0.8772,-0.8576,-0.8619,-0.8594,-0.8539,-0.8343,-0.8335,-0.8328,-0.8305,-0.8292,-0.8281,0,0,0,0,0,0,-0.9178,-0.9104,-0.9106,-0.8994,-0.8937,-0.8867,-0.8811,-0.8811,-0.8742,-0.8747,-0.8717,-0.8699,-0.8593,-0.8555,-0.8605,-0.8425,-0.8463,-0.845,-0.8454,-0.8441,-0.8432,-0.8442,-0.8626,0,0,0,0,0,-0.9161,-0.9091,-0.9029,-0.8936,-0.8908,-0.8864,-0.8821,-0.8808,-0.8746,-0.8721,-0.8673,-0.8611,-0.8536,-0.8486,-0.8413,-0.8296,-0.8278,-0.8245,-0.8235,-0.8228,-0.8217,-0.8153,-0.8138,-0.83,-0.83,-0.83,0,0,-0.9123,-0.9074,-0.9031,-0.893,-0.8884,-0.8811,-0.8844,-0.8764,-0.8709,-0.8707,-0.8606,-0.8569,-0.8498,-0.8386,-0.8334,-0.8351,-0.8169,-0.8218,-0.8213,-0.8206,-0.8144,-0.8128,-0.8115,-0.8295,-0.8296,-0.8296,0,0,-0.9017,-0.8973,-0.8892,-0.8846,-0.8778,-0.875,-0.8731,-0.8661,-0.8638,-0.8536,-0.8534,-0.8467,-0.8338,-0.8288,-0.8246,-0.8125,-0.8125,-0.8101,-0.805,-0.7988,-0.7975,-0.7964,-0.7921,-0.7906,-0.8091,-0.8091,-0.8091,0,-0.8978,-0.887,-0.8849,-0.8771,-0.8726,-0.8726,-0.8643,-0.8598,-0.8508,-0.8477,-0.8498,-0.8338,-0.829,-0.8167,-0.8138,-0.8104,-0.808,-0.811,-0.7979,-0.7967,-0.7956,-0.7915,-0.7899,-0.8088,-0.8089,-0.8089,-0.8089,0,-0.8826,-0.8751,-0.8693,-0.8611,-0.856,-0.8479,-0.8444,-0.8395,-0.8387,-0.8356,-0.8253,-0.8196,-0.8113,-0.8083,-0.8071,-0.7959,-0.7972,-0.7986,-0.8023,-0.7939,-0.79,-0.7884,-0.8085,-0.8086,-0.8086,-0.8087,0,0,-0.8699,-0.8609,-0.8588,-0.8552,-0.8478,-0.8418,-0.8338,-0.826,-0.8218,-0.8156,-0.8088,-0.798,-0.7994,-0.7946,-0.793,-0.7876,-0.7785,-0.7897,-0.7895,-0.7878,-0.7657,-0.7647,-0.7629,-0.7785,-0.7782,-0.778,-0.7664,0,-0.8586,-0.8446,-0.8426,-0.8302,-0.8233,-0.8232,-0.8162,-0.8108,-0.8078,-0.8014,-0.798,-0.7905,-0.7928,-0.79,-0.7846,-0.7807,-0.774,-0.7815,-0.7719,-0.7716,-0.7737,-0.7609,-0.7596,-0.749,-0.7648,-0.7646,-0.7644,0,-0.8434,-0.8373,-0.8243,-0.8181,-0.8151,-0.8089,-0.8017,-0.7955,-0.7894,-0.7876,-0.7825,-0.7816,-0.7731,-0.7773,-0.7656,-0.7707,-0.7667,-0.7642,-0.7637,-0.7627,-0.7674,-0.7594,-0.7455,-0.7439,-0.7619,-0.7621,-0.7623,0,-0.8357,-0.8241,-0.8149,-0.8117,-0.8042,-0.7999,-0.7965,-0.7907,-0.7862,-0.7798,-0.7769,-0.7694,-0.7654,-0.7596,-0.7567,-0.76,-0.7451,-0.749,-0.7433,-0.7434,-0.7401,-0.7403,-0.7253,-0.7375,-0.7376,-0.7376,-0.7376,0,-0.8232,-0.8152,-0.8113,-0.8056,-0.7967,-0.7945,-0.7856,-0.7823,-0.7773,-0.7708,-0.7702,-0.7642,-0.7607,-0.7541,-0.7517,-0.7424,-0.7405,-0.7388,-0.7382,-0.7388,-0.7391,-0.7361,-0.7367,-0.7372,-0.7373,-0.7373,-0.7374,0,-0.8129,-0.81,-0.8,-0.7938,-0.7921,-0.7858,-0.7804,-0.7748,-0.7721,-0.7639,-0.7619,-0.7573,-0.7496,-0.7462,-0.7364,-0.7349,-0.7242,-0.7242,-0.7264,-0.7262,-0.7207,-0.7213,-0.7032,-0.7007,-0.7146,-0.7145,-0.7144,0,-0.8051,-0.7991,-0.7924,-0.7883,-0.7849,-0.7781,-0.7736,-0.7712,-0.7665,-0.7593,-0.7545,-0.7469,-0.7406,-0.7281,-0.7238,-0.7164,-0.7162,-0.7104,-0.715,-0.7159,-0.7161,-0.7165,-0.7159,-0.7095,-0.7094,-0.7092,-0.7091,0,-0.7917,-0.7907,-0.7844,-0.7776,-0.7724,-0.7669,-0.7615,-0.758,-0.7547,-0.7495,-0.7417,-0.7369,-0.7272,-0.7196,-0.712,-0.7083,-0.7081,-0.7078,-0.7061,-0.7065,-0.7081,-0.7072,-0.7241,-0.7081,-0.7082,-0.7083,-0.7084,-0.7084,-0.7824,-0.7771,-0.7717,-0.7648,-0.7606,-0.7556,-0.7502,-0.7469,-0.7404,-0.7326,-0.7315,-0.7232,-0.7173,-0.7072,-0.7032,-0.6966,-0.698,-0.6955,-0.6949,-0.6943,-0.694,-0.7093,-0.6952,-0.6952,-0.6952,-0.6953,-0.6953,0,-0.769,-0.7656,-0.7593,-0.752,-0.7465,-0.7473,-0.7414,-0.7367,-0.7295,-0.7242,-0.7182,-0.7093,-0.7019,-0.6972,-0.6898,-0.6854,-0.6851,-0.6835,-0.6837,-0.6829,-0.6931,-0.6954,-0.6838,-0.6838,-0.6838,-0.6838,-0.6838,-0.6838,-0.7614,-0.7525,-0.7509,-0.7399,-0.7365,-0.7286,-0.7252,-0.7206,-0.7164,-0.7067,-0.7007,-0.6978,-0.6927,-0.6849,-0.6782,-0.6769,-0.6742,-0.6725,-0.6713,-0.681,-0.6821,-0.6833,-0.6854,-0.6719,-0.6719,-0.6617,-0.6616,-0.6615]}]]